TimeEDT,TemperatureF,Dew PointF,Humidity,Sea Level PressureIn,VisibilityMPH,Wind Direction,Wind SpeedMPH,Gust SpeedMPH,PrecipitationIn,Events,Conditions,WindDirDegrees,DateUTC
12:54 AM,19.0,-2.0,40,30.22,10.0,NW,6.9,-,N/A,,Clear,320,2014-03-17 04:54:00
1:54 AM,17.1,-4.0,39,30.21,10.0,North,12.7,18.4,N/A,,Clear,350,2014-03-17 05:54:00
2:54 AM,16.0,-8.0,34,30.22,10.0,NNW,9.2,-,N/A,,Clear,340,2014-03-17 06:54:00
3:54 AM,15.1,-9.0,34,30.20,10.0,NNW,11.5,-,N/A,,Clear,340,2014-03-17 07:54:00
4:54 AM,15.1,-9.0,34,30.20,10.0,NNW,6.9,-,N/A,,Clear,340,2014-03-17 08:54:00
5:54 AM,14.0,-9.0,35,30.19,10.0,North,9.2,-,N/A,,Clear,350,2014-03-17 09:54:00
6:54 AM,14.0,-8.0,37,30.20,10.0,NNW,9.2,-,N/A,,Clear,340,2014-03-17 10:54:00
7:54 AM,14.0,-8.0,37,30.21,10.0,NNW,8.1,-,N/A,,Clear,340,2014-03-17 11:54:00
8:54 AM,15.1,-8.0,36,30.22,10.0,NNW,9.2,-,N/A,,Clear,340,2014-03-17 12:54:00
9:54 AM,16.0,-7.1,36,30.20,10.0,Variable,5.8,-,N/A,,Clear,0,2014-03-17 13:54:00
10:54 AM,18.0,-7.1,33,30.19,10.0,North,5.8,-,N/A,,Clear,360,2014-03-17 14:54:00
11:54 AM,21.0,-7.1,29,30.14,10.0,NNE,8.1,-,0.00,,Clear,20,2014-03-17 15:54:00
12:54 PM,21.9,-7.1,28,30.13,10.0,Variable,3.5,-,0.00,,Clear,0,2014-03-17 16:54:00
1:54 PM,24.1,-6.0,27,30.12,10.0,Variable,5.8,-,N/A,,Clear,0,2014-03-17 17:54:00
2:54 PM,27.0,-7.1,23,30.07,10.0,North,5.8,-,N/A,,Clear,350,2014-03-17 18:54:00
3:54 PM,28.0,-5.1,24,30.09,10.0,WNW,9.2,-,N/A,,Clear,300,2014-03-17 19:54:00
4:54 PM,28.0,-7.1,22,30.07,10.0,NNW,5.8,-,N/A,,Clear,330,2014-03-17 20:54:00
5:54 PM,28.9,-7.1,21,30.09,10.0,NW,8.1,-,N/A,,Clear,320,2014-03-17 21:54:00
6:54 PM,28.0,-8.0,21,30.11,10.0,NW,6.9,-,N/A,,Clear,320,2014-03-17 22:54:00
7:54 PM,25.0,-6.0,26,30.12,10.0,North,3.5,-,N/A,,Clear,350,2014-03-17 23:54:00
8:54 PM,24.1,-4.0,29,30.14,10.0,North,4.6,-,N/A,,Clear,360,2014-03-18 00:54:00
9:54 PM,25.0,-6.0,26,30.16,10.0,NW,6.9,-,N/A,,Clear,320,2014-03-18 01:54:00
10:54 PM,21.9,-4.0,32,30.18,10.0,North,6.9,-,N/A,,Clear,350,2014-03-18 02:54:00
11:54 PM,21.0,-4.0,33,30.18,10.0,North,4.6,-,N/A,,Clear,360,2014-03-18 03:54:00